Temperature
20 17 16 17 18 19 19 19 18 18 16 14 13 12 12 13 12 12 12 12 12 13 14 14 15 15 16 16 16 17 17 17 18 18 18 18 19 19 19 19 19 19 19 19
17 16 17 18 17 18 18 17 17 17 16 14 12 12 13 13 12 12 12 11 11 12 13 14 14 15 15 15 16 16 16 16 17 17 17 17 18 19 19 19 19 19 19 19
16 17 18 17 16 16 17 17 17 17 15 14 13 12 12 12 13 12 12 11 11 11 12 12 13 14 14 14 15 15 15 16 16 16 16 17 17 18 18 19 19 19 19 19
16 16 16 16 15 15 15 16 16 16 15 12 13 12 11 11 11 12 11 11 11 11 11 12 12 13 13 13 14 14 14 15 15 15 15 15 16 16 17 18 18 19 19 19
16 16 15 15 16 15 15 15 15 15 14 11 11 11 10 10 10 11 11 11 11 11 11 11 12 12 12 12 13 13 13 14 14 14 14 14 15 15 16 17 17 18 18 18
16 16 16 15 15 15 14 14 13 11 11 11 10 11 11 10 10 10 11 11 11 11 11 11 12 12 12 12 12 13 13 13 13 13 14 14 14 14 15 15 16 16 17 17
15 15 15 15 14 13 12 12 13 13 11 11 11 11 11 11 11 11 11 11 11 11 11 11 11 11 12 12 12 12 12 12 13 13 13 13 14 14 14 15 15 15 16 16
15 14 15 14 14 13 12 11 12 13 12 11 11 11 11 12 12 12 11 11 11 11 11 11 11 11 11 11 12 12 12 12 12 12 13 13 13 14 14 14 14 15 15 15
14 14 16 15 14 13 13 11 11 10 11 11 11 12 12 12 12 12 11 11 11 11 11 11 11 11 11 11 12 12 12 12 12 12 12 13 13 13 13 14 14 14 14 14
14 14 14 14 14 13 11 11 9 10 11 11 11 11 10 10 11 11 11 11 12 12 12 11 11 11 11 11 11 12 12 12 12 12 12 13 13 13 13 13 14 14 14 14
14 13 13 13 13 12 11 11 8 8 9 9 10 11 12 11 10 10 10 11 12 12 12 12 12 11 11 11 11 12 12 12 12 12 12 13 13 13 13 13 13 13 13 13
12 11 12 14 14 13 11 10 9 9 8 9 9 10 12 11 11 11 11 12 13 13 13 13 12 12 12 12 11 11 12 12 12 12 12 12 13 13 13 13 13 13 13 13
13 12 12 13 13 13 12 11 9 8 8 9 9 10 11 11 12 12 12 13 13 13 13 13 13 12 12 12 11 11 11 11 12 12 12 12 12 12 13 13 13 13 13 13
13 11 12 14 13 13 13 12 10 9 8 9 10 10 10 10 10 12 13 13 13 13 13 13 13 13 12 12 11 11 11 11 11 11 12 12 12 12 12 12 12 12 12 13
13 12 13 13 14 13 13 13 11 11 9 9 11 10 10 10 11 12 13 13 14 14 14 14 13 13 13 12 12 11 11 11 11 11 11 11 11 11 11 12 12 12 12 12
12 13 14 14 14 14 13 13 12 12 10 10 11 11 11 13 13 13 13 14 14 14 14 14 14 13 13 13 12 12 11 11 11 11 11 11 11 11 11 11 11 11 11 11
11 12 12 12 13 13 12 12 12 12 11 11 11 12 13 13 13 13 14 14 14 14 14 14 14 14 14 13 13 12 12 11 11 11 11 11 11 11 10 10 11 11 11 11
12 11 10 11 13 13 13 13 13 13 13 11 12 12 13 14 14 14 14 14 14 14 14 14 14 14 14 13 13 12 12 12 11 11 11 11 11 10 10 10 10 10 10 10
11 11 10 10 12 12 13 13 13 13 13 12 12 13 14 14 14 14 14 14 14 14 14 14 14 14 14 14 13 13 12 12 12 11 11 11 10 10 10 10 10 10 10 10
11 10 10 11 14 14 15 14 15 14 13 14 14 14 14 13 11 12 15 14 14 14 14 14 14 15 14 14 14 13 13 12 12 12 11 11 10 10 10 10 10 10 10 10
13 11 11 11 12 13 13 14 15 12 13 15 15 15 14 14 13 15 15 14 14 14 14 14 14 15 14 14 14 13 13 13 12 12 11 11 11 10 10 10 10 9 9 9
12 11 11 10 12 13 14 13 13 13 16 16 16 16 15 15 15 15 15 15 14 14 14 14 14 14 14 14 14 14 13 13 12 12 11 11 11 10 10 10 10 9 9 9
11 12 10 11 13 15 15 16 17 17 17 17 17 16 16 15 15 15 15 15 15 15 15 14 14 14 14 14 14 14 13 13 13 12 11 11 10 10 10 10 10 9 9 9
11 11 10 10 11 14 16 17 17 17 18 17 17 16 16 16 15 15 15 15 15 15 15 15 14 14 14 14 14 14 13 13 13 12 11 11 10 10 10 10 9 9 9 9
13 10 11 12 12 14 16 17 17 17 17 17 17 16 16 16 16 15 15 15 15 15 15 15 14 14 14 14 14 14 14 13 13 12 11 11 10 10 10 10 9 9 9 8
12 12 13 14 17 16 19 19 18 17 17 17 17 16 16 16 16 16 15 15 15 15 15 15 14 14 14 14 14 14 14 13 13 12 12 11 11 10 10 10 9 9 8 8
Wind_Speed
8 10 7 8 6 2 2 3 3 3 5 8 12 11 9 11 14 15 14 13 13 12 11 11 11 11 11 10 10 9 10 10 9 6 5 5 4 5 6 8 11 12 12 12
8 8 7 6 7 6 5 4 3 3 5 7 8 8 6 8 11 10 12 13 13 15 16 15 13 11 11 11 10 9 9 10 9 7 6 5 6 6 6 6 7 11 12 11
9 4 6 5 8 7 4 4 0 1 4 5 5 4 7 5 6 11 13 11 12 14 16 16 15 13 12 11 11 11 11 10 10 9 7 6 5 4 3 5 6 8 11 12
8 5 5 5 6 6 2 2 3 3 3 2 2 0 6 8 9 16 17 15 15 15 15 14 14 14 12 11 10 10 10 10 10 9 8 8 6 6 5 4 4 5 6 8
4 3 6 7 5 4 4 5 2 1 5 5 7 4 6 8 11 18 17 16 16 15 15 14 13 13 12 11 10 9 9 9 9 9 8 7 6 6 5 4 3 3 3 4
5 3 4 4 4 3 4 2 5 6 5 5 5 3 5 6 11 16 16 16 16 15 15 14 12 12 11 10 9 9 9 9 9 9 8 7 7 7 5 3 1 1 1 1
6 6 7 5 7 8 9 6 4 5 6 2 3 4 3 6 8 11 15 16 15 14 14 15 14 14 12 11 11 9 9 9 9 9 8 8 8 7 6 4 2 1 1 1
4 6 7 7 4 4 5 5 5 3 2 1 3 3 4 5 8 9 11 12 14 14 14 15 14 13 12 11 10 9 9 8 9 9 8 8 8 6 5 6 5 3 2 2
5 1 3 4 5 4 4 4 2 6 3 3 3 3 4 6 11 12 13 14 15 15 15 15 14 13 12 12 11 10 9 9 9 9 8 8 8 8 7 7 6 5 4 3
6 4 4 5 6 8 5 4 5 5 3 2 3 3 6 11 14 14 15 14 15 14 14 13 13 14 12 12 11 11 10 9 8 8 8 7 8 8 7 7 8 7 7 6
4 5 4 5 6 6 6 5 6 5 4 4 1 3 3 7 9 11 12 12 12 12 12 11 10 11 11 11 11 11 12 11 10 9 9 9 9 8 8 8 8 7 6 6
4 5 3 2 1 2 5 4 3 4 2 3 2 4 5 5 7 8 10 11 11 10 10 9 9 10 10 11 11 12 11 11 11 10 10 10 9 9 9 9 9 8 8 7
5 5 3 5 5 4 6 4 4 5 5 3 2 5 4 6 8 8 8 9 9 9 10 9 9 9 9 9 10 10 11 11 10 10 10 11 11 11 10 10 9 9 9 9
5 5 4 4 3 1 2 2 3 4 4 3 3 5 7 8 8 9 9 9 9 9 8 9 8 8 8 8 8 9 9 9 9 9 10 10 10 10 10 10 10 10 10 10
5 5 4 3 3 3 1 1 3 3 5 6 5 5 8 7 6 8 8 8 8 9 9 8 8 7 7 7 8 8 8 8 8 9 9 9 8 9 9 9 9 10 10 10
4 5 3 2 1 1 2 4 3 3 4 4 3 6 8 6 4 6 7 7 8 9 8 9 8 8 7 7 6 7 7 7 7 8 8 8 8 8 8 8 8 9 10 9
3 5 4 1 1 4 6 8 9 5 6 7 7 7 4 4 5 6 6 7 7 8 8 8 8 7 6 5 4 5 5 6 7 7 7 7 7 7 7 7 8 8 8 9
6 5 4 2 2 5 7 4 8 7 6 9 7 6 6 7 5 5 6 6 7 8 8 8 7 7 6 4 3 3 4 5 6 6 7 7 7 7 7 7 8 7 6 7
4 7 4 3 2 7 7 5 8 7 6 9 9 8 6 4 2 5 5 4 5 6 7 6 6 5 5 5 3 2 4 5 5 5 6 6 6 6 7 7 7 6 6 7
6 5 6 4 2 5 7 5 7 5 5 8 10 9 7 7 1 5 5 4 6 6 5 6 6 5 5 5 2 1 3 4 4 3 4 4 5 6 7 6 5 5 5 6
2 3 4 5 6 8 6 7 9 5 8 6 10 9 10 9 8 5 4 4 4 5 5 6 6 6 6 5 2 2 3 3 2 1 4 5 5 6 6 5 5 5 6 7
8 6 6 5 5 8 6 10 10 11 3 7 10 9 10 9 7 6 5 4 4 5 5 6 6 6 6 5 4 4 4 3 1 4 6 6 6 6 5 6 6 6 6 7
8 9 7 9 9 5 9 9 7 7 7 8 9 9 9 8 6 5 3 2 2 3 4 4 5 5 6 6 4 4 5 3 3 6 6 5 6 6 6 6 6 6 6 6
5 5 5 6 9 7 9 7 5 8 8 9 10 9 9 8 7 6 3 2 2 3 3 4 4 5 6 6 5 4 4 2 5 6 5 4 5 5 5 5 5 5 5 6
7 8 5 7 8 5 7 11 9 8 7 8 8 9 10 9 8 6 4 3 2 2 2 2 3 4 5 6 6 6 4 2 5 5 5 4 4 3 3 3 3 3 3 3
7 10 9 8 8 8 7 10 11 11 10 11 10 8 7 8 8 7 5 4 3 2 1 2 3 3 4 5 6 6 4 1 5 4 4 3 3 2 1 1 2 2 1 4
Wind_Direction
31 51 33 359 359 21 99 109 92 57 72 80 90 79 48 34 34 26 15 5 359 351 343 344 345 347 346 346 347 344 344 339 339 334 327 310 280 253 231 224 218 207 204 203
51 34 353 5 14 42 68 88 51 25 81 102 106 84 48 38 34 20 7 356 348 343 343 342 340 342 343 340 339 338 337 333 331 323 311 290 285 271 247 231 217 208 200 192
86 1 351 44 37 34 49 105 357 292 69 86 116 65 18 357 8 9 6 354 347 341 337 333 333 334 334 333 334 335 330 329 327 323 314 308 296 286 269 238 223 214 202 191
82 14 23 47 41 30 326 336 304 257 128 52 4 252 2 332 339 358 355 350 343 337 333 329 328 326 324 322 325 325 325 327 326 324 322 318 308 295 284 273 248 227 209 195
80 21 34 30 358 360 291 315 323 130 124 71 25 59 334 338 349 346 343 340 336 332 330 327 324 320 318 318 321 321 324 327 328 330 330 324 313 301 296 281 251 235 216 205
53 20 43 348 334 1 332 59 64 54 72 54 343 36 351 344 332 329 333 335 334 332 331 328 325 323 321 321 323 326 330 331 334 339 342 342 337 331 327 322 296 244 178 161
28 13 0 6 6 7 32 67 47 27 36 24 333 60 322 297 318 323 328 332 335 336 338 335 335 336 333 333 333 336 337 338 344 347 351 355 354 355 357 352 351 17 78 104
80 9 356 13 26 340 28 78 118 140 137 325 14 25 287 285 316 325 331 336 343 346 348 346 345 344 342 340 342 348 349 350 353 356 357 3 9 11 13 18 23 33 45 58
122 97 338 27 32 52 51 54 107 119 109 75 10 335 314 328 340 344 344 345 344 344 347 350 352 352 350 352 355 355 357 360 0 2 4 10 14 20 21 23 29 32 35 48
122 114 348 344 31 35 81 95 71 79 111 84 352 342 323 324 333 336 340 339 336 339 345 350 354 355 356 359 0 3 7 6 3 5 12 15 12 17 19 25 32 33 33 38
98 108 6 31 34 354 21 48 73 78 91 126 87 308 278 299 311 321 325 327 327 331 336 342 345 350 354 1 4 8 12 15 15 15 18 19 18 20 25 29 31 32 35 38
104 106 70 351 342 106 92 73 110 119 99 106 136 274 290 311 308 312 318 325 328 332 332 334 340 348 355 360 3 7 11 17 18 19 24 26 27 27 31 33 32 35 39 38
124 101 74 0 359 21 57 57 84 108 110 116 149 277 306 341 330 328 327 329 331 335 342 344 347 351 353 355 359 6 11 14 16 21 25 29 29 30 31 32 31 35 39 39
107 83 127 150 211 177 66 75 122 111 120 155 221 267 306 322 321 321 325 325 327 336 342 347 346 344 347 352 358 2 7 9 15 22 27 29 27 28 31 33 35 37 39 40
92 89 81 85 102 114 136 171 153 144 165 169 222 250 268 276 283 296 307 321 336 342 343 345 342 340 343 350 356 359 2 5 12 22 25 21 21 28 32 34 35 37 40 41
74 109 92 49 94 89 275 226 193 176 179 206 240 264 253 258 275 293 311 326 331 330 333 338 340 338 338 343 347 353 356 357 11 23 19 16 23 29 30 32 36 40 37 34
87 117 114 264 326 2 280 221 195 203 199 184 207 236 244 253 268 277 293 306 310 316 323 330 328 320 318 322 333 345 344 354 15 20 17 17 23 30 27 34 39 36 32 34
120 104 113 120 74 268 247 211 174 188 216 203 217 234 226 230 250 269 268 277 299 312 321 325 322 318 313 310 322 341 359 6 15 18 17 17 24 29 27 36 37 31 29 32
122 127 118 127 220 279 281 186 169 181 244 209 207 228 229 212 348 308 270 266 279 294 302 303 306 302 307 310 305 354 0 3 15 18 18 19 28 34 33 32 28 25 35 37
69 94 114 135 218 256 255 192 152 115 265 214 187 201 184 138 156 267 271 286 298 311 317 323 328 332 338 328 320 1 345 351 355 10 32 40 43 46 41 36 34 30 37 33
126 87 135 169 231 263 243 149 124 150 244 197 177 181 170 180 206 232 284 291 306 321 331 343 351 355 343 338 6 356 334 322 316 53 70 57 49 54 49 45 39 37 36 33
175 169 188 166 210 258 190 148 180 210 204 166 172 175 181 205 229 245 259 274 325 343 347 354 357 353 351 4 23 4 338 316 30 95 82 64 48 48 50 52 45 39 38 37
194 190 185 191 215 236 188 195 202 171 170 178 176 181 182 195 216 216 219 244 318 339 349 353 352 351 357 5 14 356 331 342 104 102 93 79 64 51 47 54 50 43 39 37
240 173 178 246 260 237 224 232 203 184 182 179 174 173 173 184 196 197 200 233 294 320 340 348 357 360 351 347 355 342 332 24 119 116 110 97 82 63 49 49 51 52 41 34
217 168 198 252 268 266 238 209 198 189 176 161 166 174 178 179 187 190 198 220 251 286 319 343 348 338 334 339 346 346 351 76 120 125 125 114 101 89 63 52 46 49 35 26
192 178 181 221 218 193 229 203 180 171 177 174 169 176 182 181 185 184 195 210 224 245 285 331 336 331 332 340 341 344 351 101 137 140 146 146 139 128 103 41 6 355 355 20
Height
1537 1545 1556 1555 1551 1550 1550 1553 1557 1557 1558 1564 1570 1574 1574 1571 1567 1565 1563 1561 1557 1554 1552 1548 1545 1541 1538 1535 1532 1529 1526 1523 1521 1519 1518 1517 1516 1517 1518 1520 1521 1524 1525 1527
1549 1558 1557 1553 1552 1552 1554 1559 1560 1560 1560 1566 1573 1575 1574 1572 1571 1570 1567 1562 1559 1553 1549 1546 1543 1539 1536 1533 1530 1526 1523 1520 1518 1515 1513 1512 1511 1511 1511 1513 1514 1517 1519 1521
1558 1562 1557 1557 1559 1559 1559 1562 1562 1562 1563 1567 1572 1577 1576 1573 1572 1570 1567 1563 1559 1555 1549 1545 1541 1537 1534 1531 1527 1523 1520 1517 1514 1512 1509 1508 1506 1506 1506 1507 1508 1510 1512 1515
1560 1561 1560 1561 1562 1562 1565 1560 1560 1560 1568 1578 1575 1583 1583 1577 1572 1568 1565 1562 1558 1553 1548 1544 1540 1536 1532 1529 1525 1521 1517 1514 1511 1508 1506 1504 1502 1501 1501 1502 1502 1504 1506 1508
1563 1562 1563 1564 1563 1562 1563 1560 1560 1562 1569 1581 1584 1587 1588 1580 1576 1570 1567 1562 1557 1552 1547 1542 1538 1534 1530 1526 1522 1519 1515 1512 1509 1506 1503 1501 1499 1498 1497 1497 1498 1499 1500 1503
1563 1563 1563 1564 1562 1561 1561 1561 1564 1570 1577 1591 1592 1591 1591 1586 1582 1575 1568 1563 1557 1552 1546 1541 1536 1532 1527 1524 1520 1516 1513 1510 1507 1504 1502 1499 1497 1496 1495 1494 1494 1495 1497 1498
1570 1568 1566 1564 1565 1563 1565 1571 1580 1582 1594 1596 1590 1591 1593 1584 1580 1576 1570 1563 1557 1552 1546 1540 1534 1529 1525 1522 1518 1515 1512 1509 1506 1503 1501 1499 1497 1495 1494 1493 1493 1493 1495 1496
1574 1580 1571 1568 1570 1571 1572 1577 1587 1590 1595 1597 1591 1593 1590 1582 1579 1575 1570 1564 1559 1552 1547 1540 1535 1530 1525 1521 1518 1514 1512 1509 1506 1503 1501 1499 1497 1496 1494 1493 1493 1493 1494 1494
1577 1579 1571 1570 1570 1570 1574 1581 1581 1590 1593 1597 1595 1590 1585 1580 1577 1574 1569 1565 1559 1554 1548 1543 1537 1532 1526 1522 1519 1516 1513 1510 1507 1505 1503 1501 1499 1497 1496 1495 1494 1494 1494 1494
1570 1579 1575 1573 1571 1574 1577 1580 1586 1591 1597 1601 1598 1594 1594 1585 1580 1575 1570 1566 1561 1556 1551 1546 1540 1535 1530 1526 1522 1518 1515 1512 1510 1507 1505 1504 1502 1500 1498 1497 1496 1495 1495 1495
1568 1578 1580 1577 1580 1583 1581 1584 1591 1599 1600 1604 1603 1600 1587 1585 1581 1578 1573 1568 1563 1559 1554 1550 1545 1540 1535 1530 1526 1522 1518 1515 1513 1511 1509 1507 1505 1503 1502 1500 1499 1498 1498 1497
1570 1581 1586 1581 1579 1579 1582 1586 1591 1598 1604 1603 1604 1602 1584 1583 1580 1577 1574 1570 1566 1562 1557 1553 1549 1545 1540 1535 1531 1526 1523 1520 1517 1515 1513 1510 1509 1507 1505 1504 1503 1502 1501 1500
1570 1580 1589 1588 1588 1583 1584 1587 1591 1595 1601 1603 1604 1600 1583 1582 1579 1577 1574 1571 1568 1564 1560 1556 1552 1548 1544 1540 1536 1532 1528 1525 1522 1519 1517 1514 1512 1510 1509 1507 1506 1505 1504 1503
1567 1580 1587 1590 1589 1585 1586 1587 1590 1594 1601 1601 1598 1594 1586 1582 1580 1577 1575 1572 1569 1566 1563 1559 1555 1552 1548 1544 1540 1537 1533 1530 1527 1524 1521 1518 1516 1514 1512 1511 1509 1507 1506 1505
1568 1581 1581 1582 1581 1583 1584 1585 1587 1590 1594 1597 1592 1591 1586 1582 1580 1578 1575 1573 1570 1568 1564 1561 1558 1555 1551 1548 1544 1541 1538 1535 1532 1528 1525 1523 1520 1518 1516 1514 1512 1511 1509 1508
1570 1579 1580 1583 1581 1582 1584 1583 1585 1586 1589 1590 1589 1587 1580 1579 1578 1577 1575 1574 1571 1569 1566 1563 1560 1557 1553 1550 1547 1544 1541 1538 1535 1532 1529 1527 1525 1522 1520 1518 1516 1514 1512 1511
1574 1579 1586 1590 1584 1585 1587 1580 1581 1582 1582 1584 1586 1582 1577 1577 1577 1576 1575 1574 1572 1570 1567 1564 1561 1558 1555 1553 1550 1547 1544 1542 1539 1536 1533 1530 1528 1525 1523 1521 1519 1517 1516 1514
1574 1581 1589 1592 1590 1592 1579 1569 1571 1575 1575 1576 1576 1575 1575 1575 1575 1575 1574 1573 1572 1570 1567 1565 1562 1559 1556 1554 1552 1549 1547 1545 1542 1539 1536 1533 1531 1528 1526 1525 1523 1521 1519 1517
1570 1579 1589 1595 1593 1586 1572 1567 1569 1573 1573 1569 1571 1571 1572 1574 1575 1574 1573 1572 1571 1570 1568 1565 1562 1560 1557 1555 1553 1551 1549 1547 1544 1541 1539 1536 1534 1531 1529 1527 1526 1524 1522 1520
1573 1576 1586 1592 1587 1584 1568 1561 1562 1569 1572 1562 1565 1568 1570 1573 1577 1574 1572 1571 1571 1569 1568 1565 1563 1560 1558 1555 1553 1551 1549 1548 1546 1543 1541 1538 1536 1534 1532 1530 1528 1527 1525 1523
1576 1581 1585 1589 1587 1575 1559 1559 1563 1577 1568 1557 1560 1564 1567 1569 1571 1571 1571 1570 1570 1569 1567 1565 1563 1561 1558 1556 1554 1552 1550 1548 1547 1545 1543 1541 1538 1536 1534 1532 1530 1529 1527 1525
1573 1579 1583 1587 1586 1576 1555 1557 1561 1558 1553 1554 1558 1561 1564 1566 1568 1569 1569 1569 1569 1568 1567 1565 1563 1561 1559 1556 1554 1552 1550 1549 1547 1546 1544 1542 1540 1538 1536 1534 1533 1531 1529 1527
1564 1563 1566 1567 1561 1549 1547 1547 1548 1550 1551 1553 1556 1560 1562 1565 1567 1568 1568 1568 1568 1567 1566 1565 1563 1561 1559 1557 1555 1552 1551 1549 1548 1547 1546 1544 1542 1540 1538 1537 1535 1533 1531 1529
1555 1553 1556 1556 1546 1543 1543 1544 1546 1548 1549 1552 1555 1558 1561 1563 1565 1566 1567 1567 1567 1567 1566 1564 1563 1561 1559 1557 1555 1553 1551 1550 1549 1548 1547 1545 1544 1542 1541 1539 1537 1536 1533 1531
1545 1549 1551 1549 1540 1538 1537 1538 1542 1545 1548 1551 1554 1557 1559 1561 1563 1564 1565 1566 1566 1566 1565 1564 1562 1561 1559 1557 1555 1554 1552 1551 1550 1549 1548 1547 1545 1544 1543 1541 1540 1538 1536 1534
1536 1538 1542 1540 1531 1531 1531 1532 1537 1542 1545 1548 1551 1554 1557 1559 1561 1563 1564 1564 1565 1565 1564 1563 1562 1560 1559 1557 1556 1554 1553 1552 1551 1550 1549 1548 1547 1546 1544 1543 1541 1540 1538 1536